When you browse on this site, cookies collect data to enhance your experience and personalize the content and advertising you see.
Visit our Privacy Policy to learn more. By continuing to use the site, you agree to this use of cookies and data.
  • In Romania
  • List of Countries
  • For 7 days
  • Water Temperature
  • Satellite Maps
  • Weather Map
  • Weather Widgets
  • user-avatar
    Login

    Hourly Weather Dudachnyy

    Today, 20 January, Sunday

    Time Temperature Precipitation Wind Pressure Humidity
    00:00 -1°C° 0.5 mm 5 mps 750 mmHg 95%
    01:00 -2°C° 0.5 mm 5 mps 750 mmHg 94%
    02:00 -2°C° 0.5 mm 5 mps 750 mmHg 94%
    03:00 -2°C° 0 mm 5 mps 750 mmHg 94%
    04:00 -5°C° 0.1 mm 5 mps 750 mmHg 93%
    05:00 -6°C° 0.1 mm 5 mps 751 mmHg 93%
    06:00 -8°C° 0.1 mm 5 mps 751 mmHg 92%
    07:00 -11°C° 0 mm 5 mps 752 mmHg 92%
    08:00 -12°C° 0 mm 4 mps 753 mmHg 91%
    09:00 -15°C° 0 mm 4 mps 754 mmHg 91%
    10:00 -15°C° 0 mm 4 mps 754 mmHg 92%
    11:00 -14°C° 0 mm 4 mps 755 mmHg 92%
    12:00 -14°C° 0 mm 4 mps 755 mmHg 93%
    13:00 -13°C° 0 mm 3 mps 756 mmHg 93%
    14:00 -13°C° 0 mm 3 mps 756 mmHg 94%
    15:00 -13°C° 0 mm 3 mps 757 mmHg 94%
    16:00 -13°C° 0 mm 3 mps 757 mmHg 94%
    17:00 -14°C° 0 mm 3 mps 758 mmHg 94%
    18:00 -13°C° 0 mm 2 mps 758 mmHg 94%
    19:00 -15°C° 0 mm 3 mps 758 mmHg 94%
    20:00 -16°C° 0 mm 3 mps 758 mmHg 94%
    21:00 -17°C° 0 mm 3 mps 758 mmHg 94%
    22:00 -17°C° 0 mm 3 mps 759 mmHg 94%
    23:00 -17°C° 0 mm 3 mps 759 mmHg 94%

    Tomorrow, 21 January, Monday

    Time Temperature Precipitation Wind Pressure Humidity
    00:00 -17°C° 0 mm 3 mps 759 mmHg 94%
    01:00 -18°C° 0 mm 4 mps 759 mmHg 95%
    02:00 -18°C° 0 mm 4 mps 759 mmHg 95%
    03:00 -19°C° 0 mm 4 mps 759 mmHg 96%
    04:00 -19°C° 0 mm 5 mps 759 mmHg 96%
    05:00 -19°C° 0 mm 5 mps 759 mmHg 96%
    06:00 -19°C° 0 mm 5 mps 759 mmHg 96%
    07:00 -20°C° 0 mm 6 mps 759 mmHg 96%
    08:00 -18°C° 0 mm 6 mps 759 mmHg 96%
    09:00 -18°C° 0 mm 6 mps 759 mmHg 96%
    10:00 -18°C° 0 mm 6 mps 758 mmHg 95%
    11:00 -17°C° 0 mm 6 mps 758 mmHg 94%
    12:00 -17°C° 0 mm 6 mps 758 mmHg 93%
    13:00 -16°C° 0 mm 6 mps 757 mmHg 93%
    14:00 -16°C° 0 mm 6 mps 757 mmHg 92%
    15:00 -15°C° 0 mm 6 mps 756 mmHg 92%
    16:00 -15°C° 0.1 mm 6 mps 756 mmHg 92%
    17:00 -15°C° 0.1 mm 7 mps 755 mmHg 92%
    18:00 -15°C° 0.1 mm 7 mps 754 mmHg 91%
    19:00 -15°C° 0.6 mm 7 mps 753 mmHg 92%
    20:00 -15°C° 0.6 mm 8 mps 752 mmHg 93%
    21:00 -13°C° 0.6 mm 8 mps 751 mmHg 94%
    22:00 -12°C° 0.9 mm 8 mps 750 mmHg 94%
    23:00 -11°C° 0.9 mm 8 mps 749 mmHg 94%

    Day after tomorrow, 22 January, Tuesday

    Time Temperature Precipitation Wind Pressure Humidity
    00:00 -10°C° 0.9 mm 8 mps 749 mmHg 93%
    01:00 -8°C° 0.7 mm 8 mps 748 mmHg 93%
    02:00 -7°C° 0.7 mm 8 mps 748 mmHg 93%
    03:00 -5°C° 0.7 mm 8 mps 747 mmHg 93%
    04:00 -8°C° 0.1 mm 7 mps 747 mmHg 93%
    05:00 -11°C° 0.1 mm 5 mps 748 mmHg 93%
    06:00 -14°C° 0.1 mm 4 mps 748 mmHg 93%
    07:00 -15°C° 0 mm 4 mps 749 mmHg 94%
    08:00 -16°C° 0 mm 4 mps 750 mmHg 94%
    09:00 -16°C° 0 mm 4 mps 751 mmHg 95%
    10:00 -16°C° 0 mm 4 mps 752 mmHg 93%
    11:00 -15°C° 0 mm 4 mps 752 mmHg 92%
    12:00 -15°C° 0 mm 4 mps 753 mmHg 90%
    13:00 -16°C° 0 mm 4 mps 754 mmHg 91%
    14:00 -16°C° 0 mm 3 mps 754 mmHg 91%
    15:00 -17°C° 0 mm 3 mps 755 mmHg 92%
    16:00 -18°C° 0 mm 3 mps 755 mmHg 93%
    17:00 -19°C° 0 mm 3 mps 755 mmHg 93%
    18:00 -22°C° 0 mm 3 mps 756 mmHg 94%
    19:00 -22°C° 0 mm 3 mps 756 mmHg 95%
    20:00 -22°C° 0 mm 3 mps 757 mmHg 96%
    21:00 -23°C° 0 mm 3 mps 757 mmHg 96%
    22:00 -24°C° 0 mm 3 mps 757 mmHg 96%
    23:00 -24°C° 0 mm 3 mps 758 mmHg 96%

    23 January, Wednesday

    Time Temperature Precipitation Wind Pressure Humidity
    00:00 -25°C° 0 mm 3 mps 758 mmHg 97%
    01:00 -26°C° 0 mm 3 mps 759 mmHg 97%
    02:00 -26°C° 0 mm 3 mps 759 mmHg 97%
    03:00 -27°C° 0 mm 3 mps 760 mmHg 97%
    04:00 -27°C° 0 mm 3 mps 760 mmHg 97%
    05:00 -27°C° 0 mm 2 mps 760 mmHg 97%
    06:00 -27°C° 0 mm 2 mps 761 mmHg 98%
    07:00 -27°C° 0 mm 2 mps 762 mmHg 97%
    08:00 -27°C° 0 mm 2 mps 762 mmHg 97%
    09:00 -27°C° 0 mm 2 mps 763 mmHg 96%
    10:00 -25°C° 0 mm 2 mps 763 mmHg 95%
    11:00 -24°C° 0 mm 2 mps 763 mmHg 95%
    12:00 -23°C° 0 mm 2 mps 764 mmHg 94%
    13:00 -23°C° 0 mm 2 mps 764 mmHg 94%
    14:00 -23°C° 0 mm 2 mps 764 mmHg 94%
    15:00 -23°C° 0 mm 2 mps 764 mmHg 95%
    16:00 -24°C° 0 mm 2 mps 765 mmHg 95%
    17:00 -24°C° 0 mm 2 mps 765 mmHg 96%
    18:00 -24°C° 0 mm 2 mps 765 mmHg 96%
    19:00 -25°C° 0 mm 3 mps 766 mmHg 96%
    20:00 -25°C° 0 mm 3 mps 766 mmHg 96%
    21:00 -25°C° 0 mm 3 mps 766 mmHg 96%
    22:00 -25°C° 0 mm 3 mps 766 mmHg 95%
    23:00 -26°C° 0 mm 3 mps 766 mmHg 95%

    24 January, Thursday

    Time Temperature Precipitation Wind Pressure Humidity
    00:00 -26°C° 0 mm 3 mps 767 mmHg 95%
    01:00 -26°C° 0 mm 3 mps 767 mmHg 95%
    02:00 -26°C° 0 mm 3 mps 767 mmHg 95%
    03:00 -26°C° 0 mm 4 mps 767 mmHg 95%
    04:00 -26°C° 0 mm 4 mps 767 mmHg 95%
    05:00 -26°C° 0 mm 4 mps 767 mmHg 95%
    06:00 -26°C° 0 mm 4 mps 767 mmHg 95%
    07:00 -26°C° 0 mm 4 mps 767 mmHg 94%
    08:00 -26°C° 0 mm 5 mps 767 mmHg 94%
    09:00 -26°C° 0 mm 5 mps 767 mmHg 93%
    10:00 -25°C° 0 mm 5 mps 767 mmHg 92%
    11:00 -24°C° 0 mm 5 mps 767 mmHg 90%
    12:00 -23°C° 0 mm 6 mps 767 mmHg 89%
    13:00 -22°C° 0 mm 5 mps 767 mmHg 89%
    14:00 -22°C° 0 mm 5 mps 766 mmHg 88%
    15:00 -22°C° 0 mm 5 mps 766 mmHg 88%
    16:00 -24°C° 0 mm 5 mps 766 mmHg 88%
    17:00 -24°C° 0 mm 5 mps 766 mmHg 87%
    18:00 -25°C° 0 mm 5 mps 766 mmHg 87%
    19:00 -25°C° 0 mm 5 mps 766 mmHg 86%
    20:00 -25°C° 0 mm 5 mps 766 mmHg 86%
    21:00 -25°C° 0 mm 4 mps 766 mmHg 86%
    22:00 -25°C° 0 mm 4 mps 766 mmHg 86%
    23:00 -25°C° 0 mm 4 mps 766 mmHg 86%

    25 January, Friday

    Time Temperature Precipitation Wind Pressure Humidity
    00:00 -25°C° 0 mm 4 mps 766 mmHg 86%
    01:00 -26°C° 0 mm 4 mps 765 mmHg 87%
    02:00 -26°C° 0 mm 4 mps 765 mmHg 88%
    03:00 -25°C° 0 mm 3 mps 765 mmHg 89%
    04:00 -25°C° 0 mm 3 mps 765 mmHg 90%
    05:00 -24°C° 0 mm 3 mps 765 mmHg 90%
    06:00 -24°C° 0 mm 3 mps 764 mmHg 90%
    07:00 -23°C° 0 mm 3 mps 764 mmHg 89%
    08:00 -22°C° 0 mm 3 mps 764 mmHg 88%
    09:00 -21°C° 0 mm 3 mps 764 mmHg 87%
    10:00 -19°C° 0 mm 3 mps 764 mmHg 87%
    11:00 -18°C° 0 mm 3 mps 764 mmHg 87%
    12:00 -18°C° 0 mm 3 mps 764 mmHg 86%
    13:00 -17°C° 0 mm 3 mps 763 mmHg 87%
    14:00 -16°C° 0 mm 2 mps 763 mmHg 88%
    15:00 -15°C° 0 mm 2 mps 763 mmHg 89%
    16:00 -16°C° 0.1 mm 3 mps 763 mmHg 89%
    17:00 -16°C° 0.1 mm 3 mps 763 mmHg 89%
    18:00 -16°C° 0.1 mm 3 mps 762 mmHg 89%
    19:00 -16°C° 0.1 mm 3 mps 762 mmHg 90%
    20:00 -16°C° 0.1 mm 3 mps 762 mmHg 91%
    21:00 -17°C° 0.1 mm 4 mps 762 mmHg 92%
    22:00 -17°C° 0.6 mm 4 mps 762 mmHg 93%
    23:00 -17°C° 0.6 mm 4 mps 761 mmHg 94%
    Show more